Temperature
14 14 14 14 14 14 14 14 14 14 13 13 13 13 13 13 13 12 12 12 12 12 12 12 12 12 12 12 12 11 11 11 11 11 11 11 11 11 10 10 10 10 10
14 14 14 14 14 14 14 14 13 13 13 13 13 13 13 12 12 12 12 12 12 12 12 12 12 12 11 11 11 11 11 11 11 11 11 10 10 10 10 10 10 10 10
14 14 14 14 14 13 13 13 13 13 13 13 13 13 12 12 12 12 12 12 12 12 11 11 11 11 11 11 11 11 11 11 11 11 11 10 10 10 10 10 10 10 10
14 14 14 14 13 13 13 13 13 13 13 13 12 12 12 12 12 12 12 12 11 11 11 11 11 11 11 11 11 11 11 11 11 11 10 10 10 10 10 10 10 10 10
14 13 13 13 13 13 13 13 13 13 12 12 12 12 12 12 12 12 11 11 11 11 11 11 11 11 11 10 10 10 10 10 10 10 10 10 10 10 10 10 10 9 9
13 13 13 13 13 13 13 13 13 12 12 12 12 12 12 12 11 11 11 11 11 11 11 11 10 10 10 10 10 10 10 10 10 10 10 10 10 10 9 9 9 9 9
13 13 13 13 13 13 12 12 12 12 12 12 12 12 11 11 11 11 11 11 11 11 10 10 10 10 10 10 10 10 10 10 10 9 10 10 10 10 9 9 9 9 9
13 13 12 12 12 12 12 12 12 12 12 11 11 11 11 11 11 11 11 10 10 10 10 10 10 10 10 10 10 10 10 10 9 9 9 9 9 9 9 9 9 8 9
12 12 12 12 12 12 12 12 12 11 11 11 11 11 11 11 10 10 10 10 10 10 10 10 9 9 9 9 9 9 9 9 9 9 9 9 9 9 9 9 8 8 8
12 12 12 12 12 12 11 11 11 11 11 11 10 10 10 10 10 10 10 10 10 9 9 9 9 9 9 9 9 9 9 9 9 9 9 9 9 9 8 8 8 8 8
12 11 11 11 11 11 11 11 11 10 10 10 10 10 10 10 10 9 9 9 9 9 9 9 9 9 9 8 8 8 8 8 8 8 8 8 8 8 8 8 8 8 8
11 11 11 11 11 11 10 10 10 10 10 10 9 9 9 9 9 9 9 9 9 9 9 9 9 8 8 8 8 8 8 8 8 8 8 8 8 8 8 8 8 8 8
10 10 10 10 10 10 10 10 10 10 9 9 9 9 9 9 9 9 8 8 8 8 8 8 8 8 8 8 8 8 8 8 8 7 8 8 8 8 8 8 8 8 7
10 10 10 10 10 10 9 9 9 9 9 9 9 9 8 8 8 8 8 8 8 8 8 8 8 8 7 7 7 7 7 7 7 7 7 7 7 7 7 7 7 7 7
9 9 9 9 9 9 9 9 9 9 9 8 8 8 8 8 8 8 8 8 8 8 7 7 7 7 7 7 7 7 7 7 7 7 7 7 7 7 7 7 7 6 6
9 9 9 9 9 9 9 8 8 8 8 8 8 8 7 7 7 7 7 7 7 7 7 7 7 7 7 7 7 7 6 6 6 6 6 6 6 6 6 6 6 6 6
9 9 8 8 8 8 8 8 8 8 7 7 7 7 7 7 7 7 7 7 7 6 6 6 6 6 6 6 6 6 6 6 6 6 6 6 6 6 6 6 6 6 6
8 8 8 8 8 8 7 7 7 7 7 7 7 7 7 6 6 6 6 6 6 6 6 6 6 6 6 6 6 6 6 6 6 5 5 5 5 5 5 5 5 5 5
8 7 7 7 7 7 7 7 7 7 6 6 6 6 6 6 6 6 6 6 6 6 6 6 6 5 5 5 5 5 5 5 5 5 5 5 5 5 5 5 5 5 5
7 7 7 7 7 7 6 6 6 6 6 6 6 6 6 6 5 5 5 5 5 5 5 5 5 5 5 5 5 5 5 5 5 4 4 4 4 4 4 4 4 4 4
7 7 6 6 6 6 6 6 6 6 6 6 6 6 6 5 5 5 5 5 5 5 5 5 5 5 4 4 4 4 4 4 4 4 4 4 4 4 3 3 3 3 3
6 6 6 6 6 6 6 6 6 6 6 5 5 5 5 5 5 5 4 4 4 4 4 4 4 4 4 4 4 4 4 3 3 3 3 3 3 3 3 3 3 3 3
5 6 5 5 5 5 5 5 5 5 5 5 5 5 5 4 4 4 4 4 4 4 4 4 3 3 3 3 3 3 3 3 3 3 3 3 3 3 2 2 2 2 2
5 5 5 5 5 5 5 5 5 5 5 4 4 4 4 4 4 4 4 3 3 3 3 3 3 3 3 3 3 3 3 3 3 3 2 2 2 2 2 2 2 2 2
4 4 4 4 4 4 4 4 4 4 4 4 4 3 3 3 3 3 3 3 3 3 3 3 2 2 2 2 2 2 2 2 2 2 2 2 2 2 2 2 1 1 1
4 4 4 4 4 4 3 3 3 3 3 3 3 3 3 3 3 3 3 2 2 2 2 2 2 2 2 2 2 2 2 2 2 2 2 2 2 1 1 1 1 1 1
Wind_Speed
5 5 4 4 4 4 4 4 4 3 3 3 3 3 3 2 2 3 2 2 2 1 0 1 1 1 1 1 1 2 2 2 2 1 1 1 0 1 2 3 3 3 3
5 5 4 4 4 4 4 4 3 4 3 4 3 3 3 3 3 3 3 2 2 2 1 1 1 0 1 1 2 2 2 2 3 2 1 0 0 0 1 2 3 3 2
4 4 4 4 4 4 4 4 3 3 3 3 3 3 3 3 3 3 3 3 2 2 2 2 1 1 1 1 2 2 2 2 2 3 2 1 0 0 1 2 2 3 2
5 5 5 5 4 4 4 3 3 3 4 4 4 4 4 3 3 3 3 3 2 2 2 2 2 2 3 2 2 2 2 2 2 2 2 1 1 0 1 1 1 1 2
5 5 5 4 4 3 3 3 3 3 4 3 3 3 3 3 3 4 3 3 3 2 2 2 2 3 3 3 2 3 3 3 2 2 2 1 1 1 1 1 1 0 1
4 4 4 4 4 4 4 3 3 3 3 3 3 3 3 3 4 5 4 4 3 3 3 2 2 3 3 3 3 4 5 4 4 3 3 3 3 3 2 2 2 1 2
4 4 4 4 4 4 3 3 4 4 3 3 3 3 3 4 5 5 6 4 4 3 3 3 2 2 2 2 2 3 4 6 6 5 5 5 4 5 4 3 3 3 3
3 3 4 4 4 3 3 3 3 3 3 3 3 3 3 3 4 4 5 3 2 3 3 4 3 3 2 2 1 1 2 3 5 4 5 6 5 5 5 4 4 3 1
3 4 4 4 4 4 4 3 3 3 3 3 3 3 3 3 3 3 4 2 2 3 3 3 4 4 4 3 2 2 2 2 3 4 5 5 5 6 6 3 3 2 2
3 4 3 4 4 5 5 4 2 3 3 3 3 3 3 3 3 3 4 3 3 2 2 3 5 4 5 4 3 3 3 3 2 1 1 1 2 4 6 5 5 3 2
2 2 2 3 4 4 3 3 3 3 2 2 2 2 3 3 4 4 4 3 4 3 3 3 4 6 6 6 4 4 5 3 2 2 1 1 0 1 3 4 4 4 3
1 1 2 2 3 3 3 3 3 3 3 2 2 2 2 3 4 5 5 5 4 4 4 4 4 6 6 6 4 5 5 2 1 1 1 1 2 2 2 3 3 3 3
1 1 2 2 2 2 3 3 3 3 3 3 3 3 3 3 3 5 6 6 5 4 4 5 5 5 4 4 5 5 3 2 2 2 3 3 3 2 2 1 1 1 1
1 1 2 2 2 2 2 3 3 4 4 4 4 4 4 3 3 3 3 4 5 4 3 3 4 3 2 2 2 2 2 3 3 3 3 2 1 1 1 1 2 1 1
2 2 2 2 2 3 3 4 5 5 6 6 6 6 5 5 6 6 4 4 4 4 2 1 1 1 1 1 1 1 1 2 2 2 2 2 2 2 2 1 1 1 2
2 2 2 2 2 2 2 2 4 5 6 7 7 6 6 8 7 7 6 6 5 5 3 3 3 3 4 4 3 3 3 3 3 3 3 3 3 3 2 1 1 2 2
3 2 2 2 2 2 3 3 3 4 4 5 5 6 6 6 6 6 6 6 5 4 3 4 4 4 4 4 4 4 4 4 3 3 3 3 3 3 2 2 2 2 2
3 3 2 3 3 3 3 3 3 3 3 3 4 5 6 6 6 5 5 3 3 3 3 4 4 4 4 4 4 4 3 3 3 4 4 4 4 3 3 3 3 3 3
3 3 3 3 3 3 3 3 3 3 3 3 2 3 5 5 4 4 4 3 4 4 4 4 4 4 3 4 4 4 4 3 3 4 4 4 4 3 3 4 3 4 4
3 5 3 2 2 2 2 3 3 3 3 3 4 4 2 2 2 3 3 3 4 4 5 5 4 4 4 4 3 3 3 3 3 3 3 3 3 3 4 4 4 4 4
3 3 5 3 2 3 3 4 4 4 4 4 4 4 5 3 4 4 3 3 4 5 4 4 4 4 4 3 3 4 4 3 3 3 3 3 3 3 3 3 4 4 4
3 3 2 3 3 3 3 4 4 4 4 4 4 4 5 3 3 3 3 4 4 4 3 3 3 3 4 4 4 4 4 4 3 3 4 4 3 3 3 3 3 3 3
2 3 3 3 3 3 3 3 3 3 3 3 3 3 3 3 3 4 4 4 3 3 3 3 3 3 3 4 5 5 5 5 5 4 4 4 4 4 4 4 4 4 4
2 3 3 3 3 3 3 3 3 3 3 3 3 3 3 3 3 4 4 3 3 3 3 3 3 4 4 4 4 5 5 6 6 6 6 5 5 4 4 4 4 4 4
2 2 3 3 3 3 3 3 3 3 3 3 3 3 3 3 3 3 3 3 3 3 3 3 3 4 5 5 4 4 5 6 6 6 6 5 5 5 5 5 4 4 4
2 3 3 3 3 3 3 4 4 4 4 4 4 4 3 3 3 3 3 3 3 3 3 3 4 4 4 4 5 5 6 6 6 6 6 4 5 4 4 4 5 4 4
Wind_Direction
189 185 178 182 177 173 184 195 192 189 181 171 172 162 157 150 145 136 144 134 132 133 139 162 230 200 170 158 148 141 150 152 183 253 251 306 46 51 30 41 46 51 48
193 178 179 177 169 177 193 201 190 191 189 179 168 164 168 164 155 157 168 161 164 180 209 193 242 188 178 181 164 177 184 181 173 207 229 252 274 85 52 48 46 49 50
182 174 175 179 180 195 202 197 190 187 180 172 165 172 177 176 175 176 175 178 185 195 213 207 224 186 228 219 185 194 196 179 165 176 207 203 266 56 62 49 40 30 37
177 179 184 196 197 202 198 189 188 186 180 181 180 183 183 180 183 182 178 186 193 207 218 215 214 212 213 208 203 201 182 160 152 163 187 194 199 148 120 112 29 16 4
180 187 198 198 193 189 186 189 186 184 187 183 178 180 182 186 193 184 187 193 194 204 219 232 235 237 225 208 206 193 175 171 168 172 186 180 206 186 202 183 184 341 333
180 193 193 185 184 187 188 183 176 181 181 170 177 182 192 212 211 198 190 189 192 198 218 238 246 251 251 244 231 203 189 185 187 185 196 205 222 213 182 177 169 182 273
179 187 184 179 184 187 181 168 177 183 173 176 188 187 206 233 227 212 201 185 190 202 214 219 231 243 248 241 252 238 224 216 200 190 196 212 213 208 185 187 195 199 222
181 185 187 182 183 173 165 178 188 178 176 191 199 199 206 232 227 218 203 186 192 212 220 214 215 229 227 210 213 237 237 238 222 210 209 218 215 200 191 197 194 181 203
185 193 196 186 178 171 179 196 195 181 189 197 199 198 204 235 232 207 177 176 199 233 241 230 216 219 231 214 187 213 257 277 252 224 223 222 212 193 172 144 157 173 225
209 210 201 186 181 185 195 200 193 185 194 192 198 203 208 225 227 204 176 179 207 236 251 251 239 231 227 216 205 197 228 257 258 248 239 238 206 191 185 185 188 195 204
221 208 199 193 193 191 191 188 172 171 167 178 207 226 222 231 238 228 202 196 209 219 228 242 247 243 239 226 218 213 226 225 208 200 200 210 186 191 200 199 194 195 205
176 203 216 209 201 186 175 181 177 172 175 197 212 253 257 247 240 239 228 228 223 210 225 234 241 241 240 232 225 227 223 198 158 177 204 226 230 233 226 205 201 202 212
160 227 230 215 199 182 183 186 186 186 194 212 217 235 254 258 251 248 241 235 230 223 231 235 239 235 231 233 229 221 204 176 176 202 224 235 235 227 202 193 198 182 194
180 230 230 213 213 202 197 195 195 200 209 217 222 233 243 248 248 241 235 234 231 232 236 236 238 233 215 223 234 233 204 196 197 214 224 228 216 202 219 212 214 208 221
196 215 222 220 215 218 222 221 215 218 214 216 218 217 219 236 242 233 218 218 218 220 205 191 190 198 214 227 227 231 212 200 215 218 209 209 213 215 229 219 207 190 207
205 213 214 224 228 219 230 271 257 243 246 241 231 224 230 236 243 241 238 235 233 214 193 205 217 217 218 222 225 226 222 220 222 214 206 208 213 215 220 220 211 204 220
216 220 216 224 226 221 218 226 256 285 277 259 248 244 241 243 240 235 235 233 223 205 211 221 226 227 227 224 222 219 225 229 221 213 212 212 213 213 207 212 216 219 230
229 232 224 222 225 224 224 229 228 234 261 278 271 257 256 249 241 236 227 208 221 220 224 228 229 233 230 225 224 226 230 227 219 219 214 212 208 208 213 218 218 220 225
234 235 228 222 227 227 226 230 233 233 239 252 273 277 261 253 246 235 207 203 217 226 230 232 229 231 233 228 227 226 225 225 223 217 216 214 210 206 217 222 223 225 222
243 250 251 235 229 231 227 225 231 234 238 241 245 250 250 234 238 238 227 225 227 230 230 229 225 221 223 228 228 224 221 223 219 215 217 217 216 215 220 221 222 224 228
245 250 257 259 239 235 234 233 233 233 237 242 248 246 227 214 224 229 231 235 237 238 235 231 225 218 218 220 222 224 224 225 223 219 218 217 214 220 225 227 229 230 233
247 241 240 245 247 243 244 239 236 238 241 247 259 258 244 231 224 228 234 241 241 240 236 228 226 222 216 215 215 215 220 228 226 224 224 219 216 220 222 224 225 228 230
259 248 250 251 246 251 255 250 244 242 244 245 250 251 239 230 231 233 234 240 242 243 236 226 228 232 225 222 218 210 214 222 223 219 220 220 217 218 218 224 226 229 233
266 257 249 251 250 245 248 253 248 244 244 246 247 244 242 240 239 239 239 241 240 244 242 229 228 230 229 229 227 221 223 225 220 218 217 219 219 217 214 217 224 227 229
274 267 259 256 253 251 251 251 249 246 249 251 250 248 245 243 244 246 243 240 235 238 242 238 232 229 229 231 233 231 236 233 227 221 215 215 217 215 212 215 221 224 228
273 266 265 260 254 252 250 250 250 248 248 250 252 251 246 243 244 244 244 240 240 242 245 242 237 237 239 236 238 238 237 234 233 232 217 214 215 216 212 214 216 218 224
Height
1514 1516 1517 1518 1520 1521 1522 1523 1523 1524 1525 1526 1526 1526 1527 1527 1527 1528 1528 1528 1528 1528 1529 1529 1529 1529 1529 1529 1529 1529 1530 1530 1530 1530 1530 1530 1530 1530 1530 1531 1531 1530 1530
1512 1513 1515 1516 1517 1518 1519 1520 1521 1522 1523 1523 1524 1524 1525 1525 1525 1526 1526 1526 1526 1526 1527 1527 1527 1527 1527 1527 1527 1527 1528 1528 1528 1528 1528 1528 1528 1529 1529 1529 1529 1529 1529
1509 1511 1512 1514 1515 1516 1517 1518 1519 1520 1520 1521 1521 1522 1522 1523 1523 1524 1524 1524 1524 1524 1524 1524 1524 1525 1525 1525 1525 1525 1525 1526 1526 1526 1526 1526 1526 1527 1527 1527 1527 1527 1527
1506 1507 1509 1510 1511 1513 1514 1515 1516 1517 1517 1518 1519 1519 1520 1520 1521 1521 1522 1522 1522 1522 1522 1522 1522 1522 1522 1522 1522 1522 1522 1523 1523 1523 1523 1524 1524 1524 1525 1525 1525 1525 1525
1503 1504 1505 1507 1508 1509 1511 1512 1512 1513 1514 1515 1516 1516 1517 1517 1518 1519 1519 1519 1519 1519 1520 1520 1520 1520 1520 1520 1519 1519 1519 1519 1520 1520 1520 1521 1521 1521 1522 1522 1522 1522 1522
1499 1500 1502 1503 1505 1506 1507 1508 1509 1510 1511 1512 1512 1513 1514 1514 1515 1516 1516 1516 1516 1516 1516 1517 1517 1517 1517 1517 1516 1516 1517 1517 1517 1517 1517 1518 1518 1519 1519 1519 1520 1520 1519
1495 1497 1498 1500 1501 1502 1503 1504 1505 1506 1507 1508 1509 1509 1510 1511 1512 1512 1513 1513 1513 1513 1513 1513 1513 1514 1514 1513 1513 1513 1513 1514 1514 1515 1514 1515 1515 1516 1516 1516 1517 1517 1517
1492 1493 1495 1496 1497 1498 1499 1500 1502 1502 1503 1504 1505 1505 1506 1507 1508 1508 1509 1509 1510 1510 1510 1510 1510 1510 1510 1510 1510 1509 1510 1510 1511 1511 1511 1512 1513 1513 1513 1513 1513 1513 1513
1489 1490 1491 1492 1493 1495 1496 1497 1498 1499 1499 1500 1501 1502 1502 1503 1504 1505 1505 1505 1506 1506 1506 1506 1506 1506 1506 1507 1506 1506 1506 1506 1507 1508 1508 1508 1509 1509 1510 1510 1510 1510 1509
1486 1487 1488 1489 1490 1491 1492 1493 1494 1495 1496 1496 1497 1498 1499 1499 1500 1501 1501 1501 1501 1502 1502 1502 1503 1503 1503 1503 1503 1502 1502 1502 1503 1503 1504 1504 1505 1505 1505 1506 1506 1506 1506
1484 1485 1486 1487 1487 1488 1489 1490 1491 1491 1492 1493 1493 1494 1495 1495 1496 1497 1497 1497 1497 1497 1497 1498 1498 1498 1499 1499 1499 1499 1498 1499 1499 1499 1499 1500 1500 1501 1501 1501 1502 1502 1502
1482 1483 1484 1484 1485 1485 1486 1487 1487 1488 1488 1489 1489 1490 1491 1491 1492 1492 1492 1493 1493 1493 1493 1493 1494 1494 1495 1495 1495 1495 1495 1495 1495 1495 1495 1495 1495 1496 1496 1497 1497 1498 1498
1480 1480 1481 1481 1482 1482 1483 1483 1484 1484 1485 1485 1485 1485 1486 1487 1487 1488 1488 1488 1489 1489 1489 1490 1490 1490 1490 1490 1491 1491 1491 1491 1491 1491 1490 1491 1491 1492 1492 1492 1493 1493 1493
1477 1477 1478 1478 1478 1479 1479 1480 1480 1480 1481 1481 1481 1481 1482 1483 1483 1483 1483 1484 1484 1484 1485 1485 1486 1486 1486 1486 1486 1486 1486 1486 1487 1487 1487 1487 1487 1488 1488 1488 1488 1489 1489
1473 1474 1474 1475 1475 1475 1476 1476 1476 1476 1477 1477 1477 1478 1478 1478 1479 1479 1479 1479 1479 1480 1480 1480 1480 1480 1480 1481 1481 1482 1482 1482 1482 1482 1483 1483 1483 1483 1484 1484 1484 1484 1484
1470 1471 1471 1471 1472 1472 1472 1472 1472 1473 1473 1473 1473 1473 1474 1474 1475 1475 1475 1475 1475 1476 1476 1475 1475 1475 1475 1476 1476 1476 1477 1477 1477 1478 1478 1479 1479 1479 1480 1480 1480 1480 1480
1467 1467 1468 1468 1468 1468 1468 1468 1468 1468 1468 1469 1469 1469 1469 1470 1470 1470 1470 1470 1471 1471 1471 1470 1470 1470 1471 1471 1471 1471 1472 1472 1473 1473 1473 1474 1474 1475 1475 1475 1476 1476 1476
1464 1464 1464 1465 1465 1465 1464 1464 1464 1463 1463 1463 1464 1464 1464 1465 1465 1465 1466 1466 1465 1465 1465 1465 1465 1466 1466 1466 1466 1467 1467 1467 1468 1468 1468 1469 1469 1469 1470 1470 1470 1471 1471
1461 1461 1461 1461 1461 1461 1461 1460 1460 1460 1459 1459 1459 1459 1460 1460 1460 1460 1460 1460 1460 1460 1460 1460 1461 1461 1461 1461 1462 1462 1462 1462 1463 1463 1463 1464 1464 1464 1465 1465 1465 1465 1466
1457 1457 1457 1457 1456 1456 1456 1456 1455 1455 1455 1455 1454 1454 1454 1454 1454 1454 1454 1454 1455 1455 1455 1455 1456 1456 1456 1457 1457 1457 1457 1457 1457 1458 1458 1458 1459 1459 1459 1460 1460 1460 1460
1453 1453 1453 1452 1452 1452 1451 1451 1451 1451 1451 1450 1450 1450 1450 1449 1449 1449 1449 1449 1449 1450 1450 1450 1451 1451 1451 1452 1452 1452 1453 1452 1452 1453 1453 1453 1454 1454 1454 1454 1455 1455 1455
1449 1448 1448 1448 1447 1447 1447 1447 1447 1446 1446 1445 1445 1445 1445 1445 1444 1444 1444 1444 1444 1444 1445 1445 1445 1446 1446 1446 1447 1447 1447 1448 1448 1448 1448 1448 1448 1448 1449 1449 1449 1449 1450
1445 1444 1443 1443 1443 1443 1443 1442 1442 1441 1441 1441 1440 1440 1440 1439 1439 1439 1439 1439 1439 1439 1439 1440 1440 1440 1441 1441 1441 1441 1442 1442 1443 1443 1443 1443 1443 1443 1443 1444 1444 1444 1444
1441 1440 1439 1439 1439 1438 1438 1437 1437 1437 1436 1436 1435 1435 1435 1434 1434 1434 1434 1433 1433 1434 1434 1434 1434 1434 1435 1435 1436 1436 1437 1437 1438 1438 1438 1438 1437 1438 1438 1438 1439 1439 1439
1437 1436 1435 1435 1434 1434 1433 1433 1432 1432 1431 1431 1430 1430 1430 1429 1429 1429 1429 1428 1428 1428 1428 1429 1429 1429 1429 1430 1430 1431 1431 1432 1432 1433 1432 1432 1432 1432 1433 1433 1433 1433 1434
1433 1432 1431 1430 1430 1429 1428 1428 1428 1427 1427 1426 1426 1425 1425 1425 1424 1424 1424 1423 1423 1423 1423 1423 1424 1424 1424 1424 1425 1425 1425 1426 1426 1427 1427 1427 1426 1427 1427 1427 1428 1428 1429